Hourly Weather Otnoga

Today, 24 July, Saturday

Time Temperature Precipitation Wind Pressure Humidity
00:00 +15°C° 0 mm 1 mps 751 mmHg 88%
01:00 +15°C° 0 mm 1 mps 751 mmHg 88%
02:00 +15°C° 0 mm 1 mps 751 mmHg 88%
03:00 +15°C° 0 mm 1 mps 751 mmHg 89%
04:00 +14°C° 0 mm 1 mps 751 mmHg 89%
05:00 +16°C° 0 mm 1 mps 751 mmHg 81%
06:00 +20°C° 0 mm 1 mps 751 mmHg 74%
07:00 +20°C° 0 mm 2 mps 751 mmHg 67%
08:00 +23°C° 0 mm 2 mps 751 mmHg 59%
09:00 +25°C° 0 mm 2 mps 751 mmHg 52%
10:00 +26°C° 0 mm 2 mps 751 mmHg 45%
11:00 +26°C° 0 mm 2 mps 751 mmHg 46%
12:00 +26°C° 0 mm 3 mps 751 mmHg 47%
13:00 +26°C° 0 mm 3 mps 750 mmHg 48%
14:00 +26°C° 0 mm 3 mps 750 mmHg 49%
15:00 +26°C° 0 mm 3 mps 750 mmHg 49%
16:00 +26°C° 0 mm 3 mps 750 mmHg 50%
17:00 +24°C° 0 mm 3 mps 750 mmHg 55%
18:00 +22°C° 0 mm 4 mps 750 mmHg 60%
19:00 +21°C° 0 mm 4 mps 750 mmHg 65%
20:00 +20°C° 0 mm 4 mps 750 mmHg 71%
21:00 +18°C° 0 mm 3 mps 750 mmHg 77%
22:00 +17°C° 0 mm 3 mps 750 mmHg 83%
23:00 +17°C° 0 mm 3 mps 750 mmHg 83%

Tomorrow, 25 July, Sunday

Time Temperature Precipitation Wind Pressure Humidity
00:00 +16°C° 0 mm 3 mps 750 mmHg 83%
01:00 +16°C° 0 mm 2 mps 750 mmHg 83%
02:00 +16°C° 0 mm 2 mps 750 mmHg 81%
03:00 +17°C° 0 mm 2 mps 750 mmHg 79%
04:00 +17°C° 0 mm 2 mps 750 mmHg 77%
05:00 +18°C° 0 mm 3 mps 750 mmHg 74%
06:00 +19°C° 0 mm 3 mps 750 mmHg 70%
07:00 +20°C° 0 mm 3 mps 750 mmHg 66%
08:00 +23°C° 0 mm 4 mps 750 mmHg 58%
09:00 +26°C° 0 mm 4 mps 750 mmHg 49%
10:00 +28°C° 0 mm 5 mps 749 mmHg 41%
11:00 +29°C° 0 mm 5 mps 749 mmHg 40%
12:00 +29°C° 0 mm 5 mps 749 mmHg 39%
13:00 +30°C° 0 mm 5 mps 749 mmHg 38%
14:00 +29°C° 0 mm 5 mps 749 mmHg 42%
15:00 +28°C° 0 mm 5 mps 749 mmHg 46%
16:00 +27°C° 0 mm 4 mps 749 mmHg 50%
17:00 +26°C° 0.1 mm 4 mps 749 mmHg 56%
18:00 +25°C° 0.1 mm 4 mps 749 mmHg 61%
19:00 +23°C° 0.1 mm 4 mps 749 mmHg 67%
20:00 +22°C° 0.2 mm 4 mps 749 mmHg 73%
21:00 +21°C° 0.2 mm 3 mps 749 mmHg 80%
22:00 +19°C° 0.2 mm 3 mps 750 mmHg 87%
23:00 +20°C° 0 mm 2 mps 749 mmHg 83%

Day after tomorrow, 26 July, Monday

Time Temperature Precipitation Wind Pressure Humidity
00:00 +20°C° 0 mm 2 mps 749 mmHg 79%
01:00 +22°C° 0 mm 1 mps 749 mmHg 74%
02:00 +21°C° 0.1 mm 1 mps 749 mmHg 79%
03:00 +19°C° 0.1 mm 2 mps 749 mmHg 83%
04:00 +18°C° 0.1 mm 2 mps 749 mmHg 88%
05:00 +19°C° 0 mm 2 mps 749 mmHg 84%
06:00 +20°C° 0 mm 2 mps 749 mmHg 80%
07:00 +21°C° 0 mm 2 mps 749 mmHg 77%
08:00 +22°C° 0 mm 3 mps 749 mmHg 71%
09:00 +24°C° 0 mm 3 mps 749 mmHg 66%
10:00 +25°C° 0 mm 4 mps 749 mmHg 60%
11:00 +26°C° 0 mm 4 mps 749 mmHg 55%
12:00 +27°C° 0 mm 4 mps 748 mmHg 50%
13:00 +29°C° 0 mm 5 mps 748 mmHg 46%
14:00 +28°C° 0.2 mm 5 mps 748 mmHg 52%
15:00 +27°C° 0.2 mm 4 mps 748 mmHg 58%
16:00 +26°C° 0.2 mm 4 mps 748 mmHg 65%
17:00 +25°C° 0.1 mm 3 mps 748 mmHg 70%
18:00 +24°C° 0.1 mm 3 mps 748 mmHg 75%
19:00 +23°C° 0.1 mm 2 mps 748 mmHg 81%
20:00 +21°C° 0.3 mm 2 mps 748 mmHg 84%
21:00 +20°C° 0.3 mm 2 mps 748 mmHg 88%
22:00 +19°C° 0.3 mm 2 mps 748 mmHg 92%
23:00 +19°C° 0 mm 2 mps 747 mmHg 93%

27 July, Tuesday

Time Temperature Precipitation Wind Pressure Humidity
00:00 +19°C° 0 mm 2 mps 747 mmHg 94%
01:00 +19°C° 0 mm 2 mps 747 mmHg 95%
02:00 +19°C° 0.2 mm 2 mps 747 mmHg 95%
03:00 +19°C° 0.2 mm 1 mps 747 mmHg 96%
04:00 +19°C° 0.2 mm 1 mps 747 mmHg 96%
05:00 +19°C° 0.1 mm 2 mps 747 mmHg 92%
06:00 +20°C° 0.1 mm 2 mps 747 mmHg 88%
07:00 +21°C° 0.1 mm 3 mps 747 mmHg 84%
08:00 +24°C° 0 mm 3 mps 748 mmHg 77%
09:00 +25°C° 0 mm 3 mps 748 mmHg 71%
10:00 +26°C° 0 mm 3 mps 748 mmHg 64%
11:00 +27°C° 0.1 mm 4 mps 748 mmHg 57%
12:00 +29°C° 0.1 mm 4 mps 748 mmHg 51%
13:00 +30°C° 0.1 mm 4 mps 748 mmHg 44%
14:00 +29°C° 0 mm 4 mps 748 mmHg 49%
15:00 +27°C° 0 mm 3 mps 748 mmHg 53%
16:00 +26°C° 0 mm 3 mps 748 mmHg 58%
17:00 +25°C° 0 mm 3 mps 748 mmHg 62%
18:00 +24°C° 0 mm 2 mps 748 mmHg 66%
19:00 +23°C° 0 mm 2 mps 748 mmHg 70%
20:00 +21°C° 0 mm 2 mps 749 mmHg 74%
21:00 +21°C° 0 mm 1 mps 749 mmHg 78%
22:00 +18°C° 0 mm 0 mps 749 mmHg 81%
23:00 +20°C° 0 mm 1 mps 749 mmHg 81%

28 July, Wednesday

Time Temperature Precipitation Wind Pressure Humidity
00:00 +20°C° 0 mm 1 mps 749 mmHg 81%
01:00 +19°C° 0 mm 1 mps 749 mmHg 80%
02:00 +19°C° 0 mm 1 mps 748 mmHg 81%
03:00 +19°C° 0 mm 1 mps 748 mmHg 83%
04:00 +18°C° 0 mm 2 mps 748 mmHg 84%
05:00 +20°C° 0 mm 2 mps 748 mmHg 77%
06:00 +23°C° 0 mm 2 mps 748 mmHg 70%
07:00 +25°C° 0 mm 3 mps 748 mmHg 63%
08:00 +26°C° 0 mm 3 mps 748 mmHg 55%
09:00 +28°C° 0 mm 3 mps 748 mmHg 48%
10:00 +29°C° 0 mm 4 mps 747 mmHg 40%
11:00 +30°C° 0 mm 4 mps 747 mmHg 38%
12:00 +32°C° 0 mm 4 mps 747 mmHg 36%
13:00 +32°C° 0 mm 4 mps 746 mmHg 34%
14:00 +30°C° 0.1 mm 4 mps 746 mmHg 42%
15:00 +28°C° 0.1 mm 3 mps 746 mmHg 49%
16:00 +26°C° 0.1 mm 3 mps 746 mmHg 56%
17:00 +24°C° 0.4 mm 3 mps 747 mmHg 69%
18:00 +21°C° 0.4 mm 3 mps 747 mmHg 81%
19:00 +19°C° 0.4 mm 3 mps 747 mmHg 94%
20:00 +19°C° 0.1 mm 3 mps 747 mmHg 95%
21:00 +18°C° 0.1 mm 3 mps 747 mmHg 95%
22:00 +18°C° 0.1 mm 3 mps 747 mmHg 96%
23:00 +17°C° 0 mm 3 mps 748 mmHg 96%

29 July, Thursday

Time Temperature Precipitation Wind Pressure Humidity
00:00 +17°C° 0 mm 3 mps 748 mmHg 96%
01:00 +16°C° 0 mm 3 mps 748 mmHg 96%
02:00 +16°C° 0 mm 3 mps 748 mmHg 96%
03:00 +14°C° 0 mm 3 mps 748 mmHg 95%
04:00 +14°C° 0 mm 3 mps 748 mmHg 95%
05:00 +16°C° 0 mm 3 mps 748 mmHg 90%
06:00 +17°C° 0 mm 4 mps 749 mmHg 85%
07:00 +18°C° 0 mm 4 mps 749 mmHg 80%
08:00 +20°C° 0 mm 4 mps 749 mmHg 69%
09:00 +22°C° 0 mm 4 mps 749 mmHg 58%
10:00 +23°C° 0 mm 4 mps 749 mmHg 47%
11:00 +25°C° 0 mm 4 mps 749 mmHg 42%
12:00 +26°C° 0 mm 4 mps 749 mmHg 38%
13:00 +27°C° 0 mm 4 mps 748 mmHg 34%
14:00 +27°C° 0 mm 4 mps 748 mmHg 35%
15:00 +27°C° 0 mm 3 mps 748 mmHg 36%
16:00 +27°C° 0 mm 3 mps 747 mmHg 37%
17:00 +26°C° 0 mm 2 mps 747 mmHg 43%
18:00 +24°C° 0 mm 2 mps 747 mmHg 50%
19:00 +23°C° 0 mm 2 mps 747 mmHg 57%
20:00 +21°C° 0 mm 2 mps 747 mmHg 64%
21:00 +19°C° 0 mm 2 mps 746 mmHg 70%
22:00 +18°C° 0 mm 2 mps 746 mmHg 76%
23:00 +18°C° 0 mm 3 mps 745 mmHg 76%
Show more